Погода в Зарнене

Швейцария     46°53′52″N   8°14′47″E
темп.,
°C
ветер,
м/с
пор.,
м/с
влажн.,
%
обл.,
%
осадки,
мм/ч
давл.,
гПа
погр.,
м
21 октября, чт
чт2123:00+10ю3473100 0.0 101161
02:00+10ю347485 0.0 100980
05:00+10ю3487100 1.3 100984
08:00+10юз41388100 3.9 10111077
11:00+10з3127625 0.5 10151152
14:00+12зюз376369 0.5 10141255
17:00+11зюз256715 0.1 10151045
20:00+7юз238332 0.1 101764
22 октября, пт
пт2223:00+7ююз228514 0.0 101842
02:00+7ююз228351 0.0 101837
05:00+5ююз228624 0.0 101926
08:00+5ююз228255 0.0 101935
11:00+8с117599 0.0 1021197
14:00+10с117468 0.1 1021678
17:00+8ссв2290100 0.2 1022314
20:00+6св128291 0.3 1025124
23 октября, сб
сб2323:00+3ссв017841 0.0 102742
02:00+2ю00845 0.0 102710
05:000ю11915 0.0 102812
08:000ююв11935 0.0 102810
11:00+5ссв22726 0.0 1027392
14:00+8ссв22613 0.0 1026743
17:00+8с22672 0.0 1026568
20:00+3ююз11900 0.0 102812
24 октября, вс
вс2423:00+2ююз11880 0.0 102711
02:00+1ю118613 0.0 102710
05:00+1ююз21795 0.0 102712
08:00+1ю22670 0.0 102713
11:00+9с11483 0.0 1025198
14:00+14ссв11430 0.0 1023368
17:00+11св11650 0.0 102336
20:00+6ю22740 0.0 102419
25 октября, пн
пн2523:00+6ю22673 0.0 102519
02:00+5ю225799 0.0 102520
05:00+5ю225596 0.0 102421
08:00+5ю22559 0.0 102418
11:00+12с104734 0.0 1022230
14:00+14с214727 0.0 1021670
17:00+12ссв116583 0.0 102179
20:00+7ю228060 0.0 102414